FW6802 Weather Reports


Display with metric or nautical units.
time (UTC)temp
F
wind
direction
speed
MPH
gust
MPH
rain 1hr
in
rain 24hr
in
rain mn
in
humidity
%
barometer
mb
20260502234712 53 0 2.0 11.0 0.00 0.00 0.00 39 1003.5
20260502234213 53 30 2.0 11.0 0.00 0.00 0.00 38 1000.9
20260502233712 53 101 0.0 11.0 0.00 0.00 0.00 40 998.6
20260502232657 53 31 2.0 11.0 0.00 0.00 0.00 39 996.8
20260502232158 53 70 1.0 11.0 0.00 0.00 0.00 39 996.2
20260502231657 53 43 1.0 11.0 0.00 0.00 0.00 40 1003.2
20260502231157 53 333 3.0 11.0 0.00 0.00 0.00 39 1000.0
20260502230657 53 25 2.0 11.0 0.00 0.00 0.00 40 998.6
20260502230157 53 8 2.0 11.0 0.00 0.00 0.00 39 1002.1
20260502225657 53 1 3.0 11.0 0.00 0.00 0.00 40 1014.2
20260502225157 53 352 2.0 11.0 0.00 0.00 0.00 40 1007.7
20260502224141 53 1 2.0 11.0 0.00 0.00 0.00 41 1011.4
20260502223641 53 351 2.0 11.0 0.00 0.00 0.00 41 1012.5
20260502223140 53 349 1.0 11.0 0.00 0.00 0.00 41 1014.8
20260502222640 53 319 5.0 11.0 0.00 0.00 0.00 40 1014.4
20260502222141 53 299 6.0 11.0 0.00 0.00 0.00 39 1013.5
20260502221640 53 42 2.0 11.0 0.00 0.00 0.00 40 1014.7
20260502221140 53 337 2.0 11.0 0.00 0.00 0.00 40 1014.6
20260502220124 54 14 4.0 12.0 0.00 0.00 0.00 40 1015.9
20260502215623 54 288 3.0 12.0 0.00 0.00 0.00 40 1015.9
20260502215124 53 1 4.0 12.0 0.00 0.00 0.00 40 1015.1
20260502214108 53 329 2.0 12.0 0.00 0.00 0.00 41 1014.8
20260502213608 54 181 2.0 12.0 0.00 0.00 0.00 40 1014.7
20260502213107 54 23 4.0 12.0 0.00 0.00 0.00 40 1014.7
20260502212607 54 324 4.0 11.0 0.00 0.00 0.00 40 1012.4
20260502212106 54 59 4.0 11.0 0.00 0.00 0.00 40 1013.1
20260502211607 54 91 2.0 12.0 0.00 0.00 0.00 39 1013.9
20260502211106 54 1 1.0 12.0 0.00 0.00 0.00 39 1014.7
20260502210606 54 334 4.0 12.0 0.00 0.00 0.00 40 1014.1
20260502210106 54 354 4.0 12.0 0.00 0.00 0.00 40 1014.3
20260502205606 53 35 3.0 12.0 0.00 0.00 0.00 41 1014.3
20260502205106 54 356 2.0 12.0 0.00 0.00 0.00 42 1014.3
20260502204605 54 18 1.0 12.0 0.00 0.00 0.00 40 1014.5
20260502204105 54 353 4.0 12.0 0.00 0.00 0.00 40 1014.6
20260502203605 54 13 3.0 11.0 0.00 0.00 0.00 39 1014.6
20260502203105 54 26 4.0 14.0 0.00 0.00 0.00 40 1014.5
20260502202605 54 318 6.0 14.0 0.00 0.00 0.00 39 1014.8
20260502201550 55 28 3.0 12.0 0.00 0.00 0.00 39 1014.6
20260502201050 55 80 2.0 12.0 0.00 0.00 0.00 40 1014.9
20260502200550 55 23 4.0 12.0 0.00 0.00 0.00 40 1014.6
20260502200050 55 343 3.0 11.0 0.00 0.00 0.00 41 1015.0
20260502195550 54 281 4.0 13.0 0.00 0.00 0.00 42 1014.7
20260502195050 53 27 3.0 13.0 0.00 0.00 0.00 42 1014.8
20260502194034 54 52 3.0 12.0 0.00 0.00 0.00 41 1014.8
20260502193534 54 358 5.0 12.0 0.00 0.00 0.00 40 1015.2
20260502193034 54 273 4.0 15.0 0.00 0.00 0.00 41 1015.0
20260502192019 53 311 4.0 11.0 0.00 0.00 0.00 42 1015.0
20260502191519 53 234 1.0 12.0 0.00 0.00 0.00 43 1015.1
20260502191019 53 284 3.0 12.0 0.00 0.00 0.00 42 1015.2
20260502190003 54 27 3.0 14.0 0.00 0.00 0.00 40 1015.5
20260502185503 54 314 2.0 14.0 0.00 0.00 0.00 42 1015.7
20260502185003 53 41 3.0 14.0 0.00 0.00 0.00 42 1015.4
20260502184503 53 321 7.0 14.0 0.00 0.00 0.00 41 1015.4
20260502184003 54 186 1.0 12.0 0.00 0.00 0.00 43 1015.4
20260502183503 54 16 3.0 12.0 0.00 0.00 0.00 43 1015.5
20260502182503 53 307 5.0 14.0 0.00 0.00 0.00 42 1015.6
20260502182002 53 302 5.0 14.0 0.00 0.00 0.00 43 1015.6
20260502181501 54 295 6.0 14.0 0.00 0.00 0.00 41 1015.8
20260502181000 54 326 3.0 12.0 0.00 0.00 0.00 44 1015.9
20260502180500 54 15 3.0 12.0 0.00 0.00 0.00 42 1015.4
20260502170440 52 251 3.0 11.0 0.00 0.00 0.00 44 1016.4
20260502163921 52 355 4.0 11.0 0.00 0.00 0.00 42 1016.1
20260502163421 52 29 2.0 11.0 0.00 0.00 0.00 41 1016.0
20260502162921 52 24 3.0 11.0 0.00 0.00 0.00 43 1016.1
20260502162420 51 321 1.0 11.0 0.00 0.00 0.00 42 1016.4
20260502161919 51 11 5.0 11.0 0.00 0.00 0.00 42 1016.6
20260502161418 51 312 3.0 11.0 0.00 0.00 0.00 41 1016.3
20260502160918 51 334 4.0 11.0 0.00 0.00 0.00 41 1016.6
20260502160418 51 24 2.0 11.0 0.00 0.00 0.00 40 1016.4
20260502151344 50 355 3.0 11.0 0.00 0.00 0.00 42 1016.5
20260502150844 50 66 2.0 11.0 0.00 0.00 0.00 43 1016.4
20260502150343 49 74 2.0 11.0 0.00 0.00 0.00 44 1016.3
20260502123701 43 107 2.0 11.0 0.00 0.00 0.00 59 1016.1
20260502123200 43 69 3.0 11.0 0.00 0.00 0.00 59 1016.1
20260502122659 42 38 3.0 11.0 0.00 0.00 0.00 61 1016.1
20260502122159 42 56 3.0 11.0 0.00 0.00 0.00 61 1015.7
20260502121659 42 346 2.0 11.0 0.00 0.00 0.00 62 1016.1
20260502121158 42 1 3.0 11.0 0.00 0.00 0.00 63 1015.7
20260502120657 41 17 3.0 11.0 0.00 0.00 0.00 64 1015.6
20260502120156 41 53 2.0 11.0 0.00 0.00 0.00 65 1015.6
20260502114625 41 191 1.0 11.0 0.00 0.00 0.00 67 1015.8
20260502113610 41 29 3.0 11.0 0.00 0.00 0.00 66 1015.5
20260502113110 41 50 2.0 11.0 0.00 0.00 0.00 67 1015.5
20260502112055 40 108 1.0 11.0 0.00 0.00 0.00 73 1015.5
20260502111554 40 46 1.0 11.0 0.00 0.00 0.00 75 1015.7
20260502111054 40 56 1.0 11.0 0.00 0.00 0.00 76 1015.0
20260502110554 40 63 1.0 11.0 0.00 0.00 0.00 76 1015.4
20260502110052 40 357 2.0 11.0 0.00 0.00 0.00 75 1015.3
20260502105552 40 18 2.0 11.0 0.00 0.00 0.00 75 1015.2
20260502104537 41 17 3.0 11.0 0.00 0.00 0.00 74 1015.3
20260502104037 41 30 2.0 11.0 0.00 0.00 0.00 74 1015.8
20260502103537 41 47 1.0 11.0 0.00 0.00 0.00 74 1015.8
20260502103037 41 9 2.0 11.0 0.00 0.00 0.00 74 1016.2
20260502102536 40 182 0.0 11.0 0.00 0.00 0.00 74 1015.7
20260502101519 40 234 0.0 11.0 0.00 0.00 0.00 73 1015.8
20260502100504 40 8 0.0 11.0 0.00 0.00 0.00 74 1015.6
20260502091504 40 70 0.0 11.0 0.00 0.00 0.00 79 1015.4
20260502091004 40 70 0.0 11.0 0.00 0.00 0.00 79 1015.7
20260502090504 40 72 0.0 11.0 0.00 0.00 0.00 78 1015.3
20260502071356 41 31 0.0 11.0 0.00 0.00 0.00 76 1015.3
20260502070855 41 31 0.0 11.0 0.00 0.00 0.00 76 1015.4
20260502070355 41 32 0.0 11.0 0.00 0.00 0.00 76 1015.1
20260502065853 41 29 1.0 11.0 0.00 0.00 0.00 76 1015.4
20260502065353 41 29 0.0 11.0 0.00 0.00 0.00 75 1015.5
20260502064853 41 29 0.0 11.0 0.00 0.00 0.00 75 1015.7
20260502064353 41 29 0.0 11.0 0.00 0.00 0.00 75 1015.7
20260502063338 41 29 0.0 11.0 0.00 0.00 0.00 74 1015.6
20260502062838 41 26 1.0 11.0 0.00 0.00 0.00 74 1015.5
20260502062338 41 21 0.0 11.0 0.00 0.00 0.00 73 1015.5
20260502061838 42 22 0.0 11.0 0.00 0.00 0.00 73 1015.7
20260502061337 42 24 0.0 11.0 0.00 0.00 0.00 73 1015.8
20260502060836 42 25 0.0 11.0 0.00 0.00 0.00 73 1015.5
20260502060336 42 25 0.0 11.0 0.00 0.00 0.00 73 1015.5
20260502055836 42 11 1.0 11.0 0.00 0.00 0.00 73 1015.5
20260502055335 42 335 0.0 11.0 0.00 0.00 0.00 74 1015.9
20260502054834 42 330 0.0 11.0 0.00 0.00 0.00 73 1016.0
20260502053819 43 3 0.0 11.0 0.00 0.00 0.00 74 1015.5
20260502053319 43 42 1.0 11.0 0.00 0.00 0.00 74 1015.5
20260502052819 43 93 0.0 11.0 0.00 0.00 0.00 74 1015.4
20260502052319 43 91 0.0 11.0 0.00 0.00 0.00 74 1015.4
20260502050748 44 80 0.0 11.0 0.00 0.00 0.00 73 1015.6
20260502050248 44 42 0.0 11.0 0.00 0.00 0.00 72 1015.5
20260502045748 44 41 0.0 11.0 0.00 0.00 0.00 72 1015.4
20260502045248 44 48 0.0 11.0 0.00 0.00 0.00 71 1015.6
20260502044747 44 44 0.0 11.0 0.00 0.00 0.00 71 1015.5
20260502044247 44 45 1.0 11.0 0.00 0.00 0.00 71 1015.6
20260502043746 44 25 1.0 11.0 0.00 0.00 0.00 71 1015.6
20260502043245 44 31 0.0 11.0 0.00 0.00 0.00 71 1015.8
20260502042745 44 38 0.0 11.0 0.00 0.00 0.00 71 1015.7
20260502042245 44 26 0.0 11.0 0.00 0.00 0.00 70 1015.7
20260502041745 44 24 0.0 11.0 0.00 0.00 0.00 70 1015.9
20260502041245 44 22 1.0 11.0 0.00 0.00 0.00 70 1015.6
20260502040744 44 19 1.0 11.0 0.00 0.00 0.00 70 1015.5
20260502040244 45 323 0.0 11.0 0.00 0.00 0.00 70 1015.8
20260502034713 45 327 0.0 11.0 0.00 0.00 0.00 69 1015.7
20260502034213 45 337 1.0 11.0 0.00 0.00 0.00 69 1015.3
20260502033713 46 36 0.0 11.0 0.00 0.00 0.00 69 1015.4
20260502033212 46 77 0.0 11.0 0.00 0.00 0.10 70 1015.3
20260502032712 46 300 1.0 11.0 0.00 0.00 0.10 70 1015.4
20260502031656 46 17 0.0 11.0 0.00 0.00 0.10 72 1015.5
20260502031156 46 320 1.0 11.0 0.00 0.00 0.10 72 1015.5
20260502030656 46 303 1.0 11.0 0.00 0.00 0.10 74 1015.8
20260502030156 46 302 0.0 11.0 0.00 0.00 0.10 74 1015.5
20260502025140 46 306 0.0 11.0 0.00 0.00 0.10 74 1015.9
20260502024640 46 302 0.0 11.0 0.00 0.00 0.10 74 1015.8
20260502024140 46 302 0.0 11.0 0.00 0.00 0.10 74 1015.9
20260502023125 46 304 0.0 11.0 0.00 0.00 0.10 72 1015.8
20260502022625 46 305 0.0 11.0 0.00 0.00 0.10 72 1015.7
20260502022125 46 307 0.0 11.0 0.00 0.00 0.10 72 1015.7
20260502021625 46 301 0.0 11.0 0.00 0.00 0.10 72 1015.4
20260502021125 46 305 0.0 11.0 0.00 0.00 0.10 72 1015.4
20260502020108 47 304 0.0 11.0 0.00 0.00 0.10 71 1015.0
20260502015608 47 302 0.0 11.0 0.00 0.00 0.10 70 1015.0
20260502015108 47 301 0.0 11.0 0.00 0.00 0.10 70 1015.1
20260502014608 47 302 0.0 11.0 0.00 0.00 0.10 69 1014.8
20260502014108 47 302 0.0 11.0 0.00 0.00 0.10 69 1014.7
20260502013053 47 302 0.0 11.0 0.00 0.00 0.10 68 1014.5
20260502012553 48 302 0.0 11.0 0.00 0.00 0.10 68 1014.3
20260502012052 48 297 0.0 11.0 0.00 0.00 0.10 67 1014.3
20260502011552 48 297 0.0 11.0 0.00 0.00 0.10 66 1014.3
20260502011051 48 297 0.0 11.0 0.00 0.00 0.10 66 1014.1
20260502010550 49 296 1.0 11.0 0.00 0.00 0.10 65 1014.1
20260502010049 49 299 1.0 11.0 0.00 0.00 0.10 64 1014.1
20260502005549 49 307 1.0 11.0 0.00 0.00 0.10 64 1014.1
20260502005049 49 330 1.0 11.0 0.00 0.00 0.10 63 1014.1
20260502004549 49 296 1.0 11.0 0.00 0.00 0.10 62 1013.9
20260502003533 50 30 1.0 11.0 0.00 0.00 0.10 62 1013.7
20260502003032 50 286 1.0 11.0 0.00 0.00 0.10 61 1013.7
20260502002532 50 302 2.0 11.0 0.00 0.00 0.10 61 1013.5
20260502002032 50 295 1.0 11.0 0.00 0.00 0.10 60 1013.1
20260502001532 51 300 1.0 11.0 0.00 0.00 0.10 59 1013.0
20260502001032 51 19 1.0 11.0 0.00 0.00 0.10 58 1013.0
20260502000017 51 275 1.0 11.0 0.00 0.00 0.10 58 1013.3
20260501235517 51 2 0.0 11.0 0.00 0.00 0.10 59 1010.1
20260501235017 51 315 4.0 11.0 0.00 0.00 0.10 60 997.8